This is the latest recevied weather packets stored in our database for station/object WX5RP. If no packets are shown the sender has not sent any weather packets the latest 10 day(s).
| Time | Temp. | Humidity | Pressure | Rain* | Wind** | Luminosity | Snow |
|---|---|---|---|---|---|---|---|
| 1777175715 | 6.11° C | 31% | 1006.9 hPa | 0 mm | - | 0 W/m² | - |
| 1777175116 | 5.56° C | 30% | 1006.6 hPa | 0 mm | - | 0 W/m² | - |
| 1777174516 | 5.56° C | 30% | 1006.5 hPa | 0 mm | - | 0 W/m² | - |
| 1777173916 | 6.11° C | 29% | 1005.9 hPa | 0 mm | - | 0 W/m² | - |
| 1777173315 | 6.67° C | 28% | 1005.9 hPa | 0 mm | - | 0 W/m² | - |
| 1777172715 | 7.22° C | 26% | 1006.4 hPa | 0 mm | - | 0 W/m² | - |
| 1777172115 | 7.22° C | 25% | 1006 hPa | 0 mm | - | 6 W/m² | - |
| 1777171515 | 8.33° C | 25% | 1006.1 hPa | 0 mm | - | 12 W/m² | - |
| 1777170915 | 9.44° C | 22% | 1005.7 hPa | 0 mm | - | 18 W/m² | - |
| 1777170317 | 9.44° C | 22% | 1005.1 hPa | 0 mm | - | 27 W/m² | - |
| 1777169717 | 10° C | 21% | 1005.1 hPa | 0 mm | - | 31 W/m² | - |
| 1777169117 | 10.56° C | 22% | 1005.8 hPa | 0 mm | - | 45 W/m² | - |
| 1777168518 | 11.67° C | 24% | 1005.9 hPa | 0 mm | - | 72 W/m² | - |
| 1777167917 | 11.67° C | 24% | 1005.6 hPa | 0 mm | - | 71 W/m² | - |
| 1777167317 | 11.67° C | 23% | 1005.3 hPa | 0 mm | - | 93 W/m² | - |
| 1777166717 | 12.22° C | 22% | 1005.7 hPa | 0 mm | - | 123 W/m² | - |
| 1777166117 | 12.22° C | 23% | 1005.7 hPa | 0 mm | - | 219 W/m² | - |
| 1777165517 | 12.78° C | 22% | 1006.6 hPa | 0 mm | - | 225 W/m² | - |
| 1777164917 | 12.78° C | 22% | 1006.6 hPa | 0 mm | - | 333 W/m² | - |
| 1777164317 | 12.78° C | 23% | 1006.6 hPa | 0 mm | - | 299 W/m² | - |
| 1777163717 | 12.22° C | 24% | 1006.7 hPa | 0 mm | - | 353 W/m² | - |
| 1777163117 | 12.78° C | 24% | 1006.8 hPa | 0 mm | - | 375 W/m² | - |
| 1777162517 | 13.33° C | 23% | 1007.4 hPa | 0 mm | - | 301 W/m² | - |
| 1777161916 | 13.33° C | 22% | 1006.6 hPa | 0 mm | - | 547 W/m² | - |
| 1777161316 | 12.78° C | 21% | 1006.5 hPa | 0 mm | - | 554 W/m² | - |
* Rain latest hour (hover to see other rain measurements)
** Current wind speed in m/s (hover to see current wind gust speed)